Location: G�ndlingen
(48.0142°N, 7.6396°E)
Time: 01:24:25
(UTC+00:00)

ERS-1 Rocket - Pass Details

Date: 05 July 2020
Orbit: 752 x 758 km, 98.5° (Epoch: 11 August)

Event Time Altitude Azimuth Distance (km) Brightness Sun altitude
Exits shadow 20:56:51 13° 163° (SSE) 2,089 4.7 -11.0°
Maximum altitude 21:01:25 89° 75° (ENE) 766 3.0 -11.4°
Drops below altitude 10° 21:06:29 10° 346° (NNW) 2,299 6.7 -11.9°
Sets 21:08:48 0° 346° (NNW) 3,228 7.7 -12.2°
